Weather History for Corinth, MS

Change the Weather History Date:

Wednesday, July 24, 2013

  Actual Average Record
Temperature  
Mean Temperature 78 °F -  
Max Temperature 84 °F 91 °F 103 °F (1943)
Min Temperature 71 °F 69 °F 58 °F (1947)
Cooling Degree Days 12    
Growing Degree Days 28 (Base 50)    
Moisture  
Dew Point 70 °F    
Average Humidity 79    
Maximum Humidity 94    
Minimum Humidity 58    
Precipitation  
Precipitation 0.00 in - - ()
Sea Level Pressure  
Sea Level Pressure 29.90 in    
Wind  
Wind Speed 2 mph (North)    
Max Wind Speed 9 mph    
Max Gust Speed -    
Visibility 9 miles    
Events Fog    
Averages and records for this station are not official NWS values.
T = Trace of Precipitation, MM = Missing Value Source: NWS Daily Summary

Daily Weather History Graph

Daily Weather History Graph

Search for Another Location

Airport:

Trip Planner

Search our weather history database for the weather conditions in past years. The results will help you decide how hot, cold, wet, or windy it might be!

Date:

Astronomy

Jul. 24, 2013 Rise Set
Actual Time 5:58 AM CDT 8:03 PM CDT
Civil Twilight 5:29 AM CDT 8:31 PM CDT
Nautical Twilight 4:55 AM CDT 9:05 PM CDT
Astronomical Twilight 4:18 AM CDT 9:42 PM CDT
Moon 9:18 PM CDT (7/24) 8:10 AM CDT (7/24)
Length of Visible Light 15h 01m
Length of Day
14h 04m
Waning Gibbous, 94% of the Moon is Illuminated
Jul 24
Waning Gibbous
Jul 29
Last Quarter
Aug 6
New
Aug 14
First Quarter
Aug 20
Full

Hourly Weather History & Observations

Time (CDT) Temp. Heat Index Dew Point Humidity Pressure Visibility Wind Dir Wind Speed Gust Speed Precip Events Conditions
12:10 AM 75.2 °F - 71.6 °F 89% 29.90 in 10.0 mi Calm Calm - N/A   Overcast
12:30 AM 75.2 °F - 71.6 °F 89% 29.89 in 10.0 mi Calm Calm - N/A   Mostly Cloudy
12:50 AM 73.4 °F - 71.6 °F 94% 29.88 in 10.0 mi Calm Calm - N/A   Mostly Cloudy
1:10 AM 73.4 °F - 71.6 °F 94% 29.87 in 10.0 mi SSE 3.5 mph - N/A   Scattered Clouds
1:30 AM 73.4 °F - 71.6 °F 94% 29.86 in 10.0 mi SSE 3.5 mph - N/A   Clear
1:50 AM 73.4 °F - 71.6 °F 94% 29.86 in 10.0 mi SE 3.5 mph - N/A   Clear
2:10 AM 73.4 °F - 71.6 °F 94% 29.85 in 10.0 mi SSE 3.5 mph - N/A   Partly Cloudy
2:30 AM 73.4 °F - 71.6 °F 94% 29.86 in 10.0 mi Calm Calm - N/A   Partly Cloudy
2:50 AM 73.4 °F - 71.6 °F 94% 29.87 in 10.0 mi Calm Calm - N/A   Mostly Cloudy
3:10 AM 73.4 °F - 71.6 °F 94% 29.87 in 10.0 mi Calm Calm - N/A   Overcast
3:30 AM 73.4 °F - 71.6 °F 94% 29.88 in 10.0 mi Calm Calm - N/A   Overcast
3:50 AM 73.4 °F - 69.8 °F 88% 29.86 in 7.0 mi Calm Calm - N/A   Overcast
4:10 AM 73.4 °F - 71.6 °F 94% 29.86 in 8.0 mi Calm Calm - N/A   Overcast
4:30 AM 73.4 °F - 71.6 °F 94% 29.86 in 9.0 mi Calm Calm - N/A   Overcast
4:50 AM 73.4 °F - 71.6 °F 94% 29.85 in 10.0 mi Calm Calm - N/A   Overcast
5:10 AM 73.4 °F - 71.6 °F 94% 29.85 in 8.0 mi Calm Calm - N/A   Overcast
5:30 AM 73.4 °F - 71.6 °F 94% 29.86 in 2.5 mi Calm Calm - N/A   Overcast
5:50 AM 71.6 °F - 69.8 °F 94% 29.87 in 0.5 mi Calm Calm - N/A Fog Fog
6:10 AM 71.6 °F - 69.8 °F 94% 29.88 in 1.8 mi Calm Calm - N/A   Overcast
6:30 AM 71.6 °F - 69.8 °F 94% 29.89 in 3.0 mi Calm Calm - N/A   Overcast
6:50 AM 73.4 °F - 71.6 °F 94% 29.88 in 6.0 mi South 3.5 mph - N/A   Mist
7:10 AM 73.4 °F - 71.6 °F 94% 29.89 in 7.0 mi Calm Calm - N/A   Mostly Cloudy
7:30 AM 73.4 °F - 71.6 °F 94% - 8.0 mi North - - N/A   Overcast
7:50 AM 75.2 °F - 73.4 °F 94% 29.90 in 9.0 mi WSW 3.5 mph - N/A   Mostly Cloudy
8:10 AM - - - N/A% 29.90 in - Calm Calm - N/A   Unknown
8:30 AM 77.0 °F - 71.6 °F 83% 29.91 in 10.0 mi NW 4.6 mph - N/A   Unknown
8:50 AM - - - N/A% - - North - - N/A   Unknown
9:10 AM 80.6 °F 84.6 °F 71.6 °F 74% 29.90 in 10.0 mi Calm Calm - N/A   Unknown
9:30 AM 80.6 °F 83.2 °F 68.0 °F 65% 29.91 in 10.0 mi NNW 6.9 mph - N/A   Clear
9:50 AM 82.4 °F 86.3 °F 69.8 °F 66% 29.90 in 10.0 mi North 8.1 mph - N/A   Clear
10:10 AM 82.4 °F 85.4 °F 68.0 °F 62% 29.91 in 10.0 mi North 6.9 mph - N/A   Clear
10:30 AM 82.4 °F 86.3 °F 69.8 °F 66% 29.91 in 10.0 mi North 8.1 mph - N/A   Clear
10:50 AM 84.2 °F 88.4 °F 69.8 °F 62% 29.91 in 10.0 mi NW 3.5 mph - N/A   Partly Cloudy
11:10 AM 82.4 °F 85.4 °F 68.0 °F 62% 29.92 in 10.0 mi North 8.1 mph - N/A   Partly Cloudy
11:30 AM 84.2 °F 89.6 °F 71.6 °F 66% 29.91 in 10.0 mi NE 9.2 mph - N/A   Partly Cloudy
11:50 AM 82.4 °F 84.6 °F 66.2 °F 58% 29.91 in 10.0 mi North 5.8 mph - N/A   Scattered Clouds
12:10 PM 82.4 °F 84.6 °F 66.2 °F 58% 29.91 in 10.0 mi NNE 6.9 mph - N/A   Scattered Clouds
12:30 PM 82.4 °F 85.4 °F 68.0 °F 62% 29.91 in 10.0 mi NNW 3.5 mph - N/A   Partly Cloudy
12:50 PM 82.4 °F 85.4 °F 68.0 °F 62% 29.91 in 10.0 mi North 3.5 mph - N/A   Partly Cloudy
1:10 PM 82.4 °F 86.3 °F 69.8 °F 66% 29.91 in 10.0 mi Calm Calm - N/A   Partly Cloudy
1:30 PM 82.4 °F 86.3 °F 69.8 °F 66% 29.91 in 10.0 mi North 4.6 mph - N/A   Clear
1:50 PM 84.2 °F 89.6 °F 71.6 °F 66% 29.91 in 10.0 mi NW 4.6 mph - N/A   Scattered Clouds
2:10 PM 84.2 °F 88.4 °F 69.8 °F 62% 29.90 in 10.0 mi North 5.8 mph - N/A   Partly Cloudy
2:30 PM 84.2 °F 88.4 °F 69.8 °F 62% 29.91 in 10.0 mi NNE 6.9 mph - N/A   Mostly Cloudy
2:50 PM 82.4 °F 87.2 °F 71.6 °F 70% 29.90 in 10.0 mi NNE 6.9 mph - N/A   Mostly Cloudy
3:10 PM 80.6 °F 83.2 °F 68.0 °F 65% 29.90 in 10.0 mi NNE 3.5 mph - N/A   Scattered Clouds
3:30 PM 80.6 °F 83.2 °F 68.0 °F 65% 29.89 in 10.0 mi North 3.5 mph - N/A   Clear
3:50 PM 80.6 °F 83.2 °F 68.0 °F 65% 29.89 in 10.0 mi NNE 8.1 mph - N/A   Clear
4:10 PM 80.6 °F 82.7 °F 66.2 °F 61% 29.89 in 10.0 mi North 5.8 mph - N/A   Clear
4:30 PM 80.6 °F 83.2 °F 68.0 °F 65% 29.89 in 10.0 mi North 6.9 mph - N/A   Clear
4:50 PM 78.8 °F - 69.8 °F 74% 29.89 in 10.0 mi North 6.9 mph - N/A   Clear
5:10 PM 78.8 °F - 69.8 °F 74% 29.89 in 10.0 mi North 6.9 mph - N/A   Clear
5:30 PM 78.8 °F - 71.6 °F 78% 29.88 in 10.0 mi NNW 8.1 mph - N/A   Clear
5:50 PM 80.6 °F 83.9 °F 69.8 °F 70% 29.89 in 10.0 mi North 4.6 mph - N/A   Clear
6:10 PM 78.8 °F - 68.0 °F 69% 29.88 in 10.0 mi North 3.5 mph - N/A   Clear
6:30 PM 80.6 °F 83.9 °F 69.8 °F 70% 29.89 in 10.0 mi NW 4.6 mph - N/A   Clear
6:50 PM 80.6 °F 83.9 °F 69.8 °F 70% 29.89 in 10.0 mi NW 4.6 mph - N/A   Clear
7:10 PM 80.6 °F 83.9 °F 69.8 °F 70% 29.90 in 10.0 mi WNW 3.5 mph - N/A   Clear
7:30 PM 78.8 °F - 69.8 °F 74% 29.91 in 10.0 mi NW 4.6 mph - N/A   Clear
7:50 PM 77.0 °F - 71.6 °F 83% 29.91 in 10.0 mi WNW 4.6 mph - N/A   Clear
8:10 PM 75.2 °F - 69.8 °F 83% 29.91 in 10.0 mi Calm Calm - N/A   Clear
8:30 PM 73.4 °F - 69.8 °F 88% 29.91 in 10.0 mi WNW 3.5 mph - N/A   Clear
8:50 PM 73.4 °F - 69.8 °F 88% 29.91 in 10.0 mi Calm Calm - N/A   Clear
9:10 PM 73.4 °F - 71.6 °F 94% 29.91 in 10.0 mi Calm Calm - N/A   Clear
9:30 PM 73.4 °F - 69.8 °F 88% 29.92 in 10.0 mi Calm Calm - N/A   Scattered Clouds
9:50 PM 73.4 °F - 69.8 °F 88% 29.93 in 10.0 mi Calm Calm - N/A   Mostly Cloudy
10:10 PM 73.4 °F - 69.8 °F 88% 29.94 in 10.0 mi Calm Calm - N/A   Mostly Cloudy
10:30 PM 73.4 °F - 71.6 °F 94% 29.94 in 10.0 mi Calm Calm - N/A   Overcast
10:50 PM 75.2 °F - 69.8 °F 83% 29.95 in 10.0 mi North 5.8 mph - N/A   Overcast
11:10 PM 75.2 °F - 69.8 °F 83% 29.95 in 10.0 mi NNW 5.8 mph - N/A   Overcast
11:30 PM 75.2 °F - 68.0 °F 78% 29.95 in 10.0 mi North 5.8 mph - N/A   Overcast
11:50 PM 73.4 °F - 66.2 °F 78% 29.95 in 10.0 mi North 6.9 mph - N/A   Overcast